Date,TemperatureHighF,TemperatureAvgF,TemperatureLowF,DewpointHighF,DewpointAvgF,DewpointLowF,HumidityHigh,HumidityAvg,HumidityLow,PressureMaxIn,PressureMinIn,WindSpeedMaxMPH,WindSpeedAvgMPH,GustSpeedMaxMPH,PrecipitationSumIn
2013-1-1,48.0,40.6,30.0,45.0,35.3,25.0,93,81,69,30.09,29.96,8,-27,0,0.00
2013-1-2,43.0,39.8,37.0,39.0,32.5,28.0,93,75,60,30.10,29.93,9,2,0,0.00
2013-1-3,39.0,34.7,28.0,34.0,27.4,18.0,93,75,54,30.20,30.07,8,1,0,0.00
2013-1-4,39.0,31.0,27.0,18.0,14.9,10.0,63,51,32,30.27,30.19,17,5,24,0.00
2013-1-5,46.0,32.3,19.0,27.0,17.7,12.0,79,57,24,30.31,30.18,8,1,0,0.00
2013-1-6,46.0,38.3,34.0,34.0,29.3,25.0,86,70,49,30.19,30.04,14,3,25,0.00
2013-1-7,46.0,34.9,25.0,27.0,22.2,19.0,79,61,36,30.34,30.15,15,-5,25,0.00
2013-1-8,50.0,32.3,19.0,34.0,24.4,16.0,86,73,46,30.38,30.29,5,-21,0,0.00
2013-1-9,54.0,39.6,28.0,48.0,35.5,25.0,93,84,70,30.45,30.35,5,0,0,0.00
2013-1-10,57.0,48.6,39.0,52.0,43.8,37.0,93,84,57,30.49,30.37,7,0,0,0.00
2013-1-11,52.0,47.8,45.0,48.0,45.1,37.0,93,90,61,30.37,30.16,6,0,0,0.00
2013-1-12,68.0,55.8,46.0,59.0,51.0,45.0,100,84,64,30.21,30.14,8,-13,0,0.00
2013-1-13,64.0,58.0,48.0,54.0,51.5,45.0,93,78,63,30.15,30.08,14,-24,21,0.00
2013-1-14,61.0,56.0,46.0,55.0,53.1,43.0,93,88,77,30.19,30.09,8,1,0,0.00
2013-1-15,48.0,46.0,43.0,45.0,43.3,39.0,93,89,86,30.18,30.04,7,0,0,0.00
2013-1-16,61.0,48.3,39.0,50.0,43.5,37.0,93,84,63,30.05,29.97,9,-131,0,0.00
2013-1-17,48.0,42.9,32.0,46.0,39.3,21.0,93,86,63,30.15,29.86,14,-184,31,0.00
2013-1-18,46.0,32.8,25.0,27.0,19.2,10.0,86,60,28,30.42,30.15,15,-25,25,0.00
2013-1-19,52.0,31.8,19.0,28.0,22.8,16.0,86,71,29,30.40,30.13,9,1,0,0.00
2013-1-20,50.0,39.3,27.0,28.0,24.7,19.0,86,57,34,30.13,30.05,15,4,24,0.00
2013-1-21,45.0,33.8,25.0,27.0,18.0,3.0,86,56,33,30.08,29.94,25,7,39,0.00
2013-1-22,27.0,21.5,18.0,3.0,-5.9,-13.0,45,30,17,30.12,29.94,25,14,45,0.00
2013-1-23,39.0,29.0,21.0,23.0,9.2,-8.0,55,43,27,30.21,30.00,16,6,28,0.00
2013-1-24,41.0,30.3,19.0,27.0,8.9,-2.0,60,41,24,30.32,29.94,36,-3,51,0.00
2013-1-25,41.0,23.7,18.0,36.0,13.0,-2.0,86,64,40,30.33,29.97,20,3,31,0.00
2013-1-26,41.0,34.2,25.0,30.0,20.9,18.0,79,59,38,30.28,30.02,20,-64,30,0.00
2013-1-27,34.0,27.7,19.0,27.0,21.4,16.0,85,76,64,30.41,30.27,8,1,0,0.00
2013-1-28,57.0,41.5,30.0,43.0,33.7,27.0,92,74,54,30.37,30.22,9,-13,0,0.00
2013-1-29,66.0,48.9,30.0,52.0,40.9,28.0,93,75,45,30.24,30.07,10,2,17,0.00
2013-1-30,61.0,55.6,45.0,55.0,51.8,37.0,93,86,75,30.07,29.55,23,10,41,0.00
2013-1-31,45.0,31.8,27.0,37.0,18.8,16.0,75,57,47,29.95,29.55,20,10,41,0.00
2013-2-1,37.0,23.8,16.0,27.0,7.2,0.0,80,49,38,30.22,29.87,29,10,38,0.00
2013-2-2,34.0,24.8,16.0,28.0,11.8,0.0,86,58,41,30.22,29.96,12,1,25,0.00
2013-2-3,36.0,30.9,27.0,27.0,21.6,14.0,86,68,55,29.97,29.85,24,-3,38,0.00
2013-2-4,45.0,31.5,21.0,23.0,17.5,12.0,79,57,38,30.06,29.94,8,2,0,0.00
2013-2-5,48.0,36.1,27.0,36.0,27.6,21.0,86,71,46,29.99,29.90,9,-26,0,0.00
2013-2-6,54.0,41.6,28.0,32.0,23.0,16.0,86,51,23,30.23,29.98,15,3,23,0.00
2013-2-7,43.0,34.0,28.0,34.0,27.5,21.0,93,77,56,30.24,30.01,6,-13,0,0.00
2013-2-8,46.0,39.6,34.0,41.0,32.5,19.0,93,76,45,30.06,29.91,20,6,32,0.00
2013-2-9,55.0,36.7,27.0,25.0,17.8,9.0,74,49,16,30.29,30.04,15,2,27,0.00
2013-2-10,46.0,36.4,28.0,36.0,24.1,18.0,86,63,31,30.35,30.14,12,-26,21,0.00
2013-2-11,55.0,47.4,39.0,52.0,37.7,16.0,93,72,31,30.15,30.01,14,-4,25,0.00
2013-2-12,52.0,43.8,37.0,34.0,21.4,16.0,80,42,27,30.08,29.94,14,-11,23,0.00
2013-2-13,43.0,37.7,34.0,39.0,33.1,25.0,93,82,64,29.94,29.66,14,2,29,0.00
2013-2-14,50.0,36.9,27.0,27.0,21.8,16.0,80,56,27,30.03,29.85,15,-26,24,0.00
2013-2-15,52.0,36.2,25.0,34.0,26.0,19.0,92,69,34,30.06,29.95,15,-39,23,0.00
2013-2-16,34.0,28.2,21.0,27.0,16.2,3.0,74,60,45,29.98,29.81,16,5,29,0.00
2013-2-17,30.0,23.0,18.0,7.0,2.6,0.0,57,41,30,30.14,29.89,27,12,44,0.00
2013-2-18,45.0,35.1,18.0,21.0,14.8,1.0,73,45,33,30.25,30.13,13,4,25,0.00
2013-2-19,46.0,38.2,32.0,37.0,22.1,9.0,86,54,29,30.13,29.87,18,7,38,0.00
2013-2-20,41.0,32.4,25.0,10.0,0.2,-9.0,43,26,13,30.09,29.96,28,10,39,0.00
2013-2-21,55.0,36.9,18.0,28.0,10.0,-2.0,80,38,9,30.19,30.05,12,-243,18,0.00
2013-2-22,39.0,35.1,32.0,36.0,30.4,27.0,93,84,69,30.20,30.06,6,0,0,0.00
2013-2-23,52.0,42.4,34.0,46.0,39.6,30.0,93,89,76,30.07,29.86,7,0,0,0.00
2013-2-24,52.0,42.0,28.0,37.0,24.6,16.0,93,53,27,30.04,29.87,12,-26,22,0.00
2013-2-25,45.0,33.0,25.0,27.0,22.0,19.0,86,65,39,30.11,30.00,8,-84,0,0.00
2013-2-26,37.0,35.0,28.0,36.0,30.9,21.0,93,84,59,30.02,29.59,12,3,17,0.00
2013-2-27,52.0,40.5,32.0,36.0,28.7,25.0,93,63,42,29.79,29.64,18,6,30,0.00
2013-2-28,37.0,30.9,28.0,27.0,21.3,19.0,74,67,59,29.85,29.71,16,7,25,0.00
2013-3-1,34.0,30.9,28.0,25.0,23.3,21.0,80,73,59,29.89,29.83,9,4,0,0.00
2013-3-2,36.0,30.4,25.0,25.0,20.7,14.0,80,67,55,29.89,29.81,14,-24,21,0.00
2013-3-3,27.0,24.1,19.0,14.0,10.8,7.0,63,57,53,29.94,29.86,16,6,25,0.00
2013-3-4,48.0,32.7,23.0,19.0,10.9,5.0,63,42,19,30.05,29.92,18,4,28,0.00
2013-3-5,41.0,34.6,28.0,39.0,29.7,19.0,93,82,63,30.04,29.65,16,-369,28,0.00
2013-3-6,34.0,27.4,25.0,27.0,19.0,16.0,80,71,63,30.06,29.64,20,8,38,0.00
2013-3-7,39.0,30.6,25.0,27.0,20.9,18.0,79,67,55,30.22,30.05,14,5,21,0.00
2013-3-8,46.0,31.7,19.0,21.0,18.4,14.0,85,60,31,30.29,30.18,13,2,20,0.00
2013-3-9,57.0,38.2,21.0,28.0,23.1,18.0,86,59,24,30.29,30.22,10,1,15,0.00
2013-3-10,57.0,45.6,30.0,32.0,28.4,25.0,80,54,33,30.27,30.17,13,-40,22,0.00
2013-3-11,54.0,47.7,45.0,46.0,41.3,30.0,93,79,46,30.19,29.89,16,7,36,0.00
2013-3-12,52.0,45.0,34.0,48.0,36.6,27.0,93,73,45,30.03,29.80,13,-10,22,0.00
2013-3-13,37.0,33.9,27.0,27.0,19.6,10.0,80,56,40,30.10,29.99,22,7,35,0.00
2013-3-14,39.0,30.9,23.0,12.0,10.1,9.0,57,42,27,30.19,30.10,16,-36,32,0.00
2013-3-15,63.0,47.1,34.0,37.0,25.9,10.0,70,45,23,30.15,29.96,17,5,24,0.00
2013-3-16,70.0,60.0,46.0,45.0,41.3,37.0,87,51,32,29.96,29.82,28,-20,39,0.00
2013-3-17,66.0,57.2,43.0,46.0,43.8,37.0,81,61,42,30.07,29.93,13,-11,22,0.00
2013-3-18,43.0,37.9,36.0,37.0,34.5,30.0,93,86,80,30.08,29.86,10,1,15,0.00
2013-3-19,50.0,41.7,36.0,41.0,23.3,5.0,93,53,22,30.06,29.87,21,-6,38,0.00
2013-3-20,46.0,36.7,25.0,27.0,10.6,5.0,86,36,19,30.06,29.84,18,4,24,0.00
2013-3-21,30.0,25.1,19.0,25.0,7.5,3.0,80,46,36,29.90,29.76,21,-7,35,0.00
2013-3-22,43.0,33.1,23.0,25.0,9.6,3.0,60,38,20,30.00,29.89,12,-46,22,0.00
2013-3-23,52.0,41.7,34.0,39.0,32.7,25.0,86,70,57,30.01,29.90,6,0,0,0.00
2013-3-24,45.0,38.5,34.0,37.0,34.6,30.0,93,84,65,29.92,29.56,9,-26,0,0.00
2013-3-25,34.0,29.4,27.0,30.0,22.3,18.0,86,74,63,29.84,29.55,18,7,35,0.00
2013-3-26,34.0,29.2,27.0,23.0,19.3,16.0,79,66,54,30.10,29.83,18,6,24,0.00
2013-3-27,36.0,30.8,28.0,21.0,18.1,14.0,68,58,47,30.21,30.10,13,5,20,0.00
2013-3-28,45.0,34.9,28.0,21.0,18.2,16.0,68,50,36,30.25,30.16,13,3,23,0.00
2013-3-29,52.0,35.4,21.0,32.0,22.4,10.0,85,63,22,30.28,30.21,14,-102,25,0.00
2013-3-30,57.0,50.4,37.0,37.0,34.9,30.0,75,56,43,30.22,30.08,10,-143,0,0.00
2013-3-31,57.0,48.6,43.0,48.0,41.8,-99.9,93,80,62,30.08,29.89,16,2,23,0.00
2013-4-1,55.0,47.4,34.0,46.0,36.8,30.0,93,69,49,30.00,29.90,15,5,25,0.00
2013-4-2,50.0,42.4,36.0,30.0,19.4,12.0,64,42,23,30.14,30.00,16,5,27,0.00
2013-4-3,55.0,41.8,27.0,21.0,16.6,12.0,73,39,17,30.26,30.13,14,-26,23,0.00
2013-4-4,39.0,35.6,32.0,34.0,24.8,10.0,93,67,30,30.25,29.95,7,-27,0,0.00
2013-4-5,55.0,43.6,36.0,37.0,33.5,30.0,93,71,40,30.08,29.92,16,-10,23,0.00
2013-4-6,61.0,45.8,28.0,36.0,29.7,25.0,92,58,31,30.21,30.08,13,-74,21,0.00
2013-4-7,63.0,50.2,34.0,43.0,35.4,28.0,86,59,40,30.22,30.13,15,-39,25,0.00
2013-4-8,70.0,54.5,37.0,50.0,42.2,34.0,93,65,43,30.19,30.11,15,-379,27,0.00
2013-4-9,75.0,59.6,41.0,52.0,46.2,37.0,93,64,38,30.25,30.16,13,-26,20,0.00
2013-4-10,81.0,63.5,45.0,54.0,48.7,43.0,93,62,31,30.18,30.05,14,-80,21,0.00
2013-4-11,73.0,61.1,46.0,57.0,50.6,45.0,93,70,43,30.06,29.82,17,5,36,0.00
2013-4-12,64.0,59.5,52.0,59.0,47.2,32.0,93,65,35,29.94,29.73,20,6,35,0.00
2013-4-13,64.0,54.0,45.0,36.0,31.0,21.0,70,43,23,30.10,29.92,20,7,30,0.00
2013-4-14,66.0,51.9,34.0,46.0,36.0,30.0,86,58,31,30.14,30.03,16,-79,28,0.00
2013-4-15,59.0,53.7,50.0,52.0,48.6,45.0,87,82,76,30.25,30.04,10,1,17,0.00
2013-4-16,72.0,61.8,54.0,55.0,52.6,48.0,93,73,53,30.32,30.24,12,2,16,0.00
2013-4-17,70.0,59.9,52.0,57.0,53.4,48.0,87,79,64,30.33,30.20,9,-42,0,0.00
2013-4-18,70.0,61.3,55.0,57.0,53.7,52.0,93,76,56,30.21,30.04,18,6,39,0.00
2013-4-19,63.0,59.0,43.0,57.0,52.5,32.0,87,80,61,30.04,29.82,21,11,43,0.00
2013-4-20,54.0,43.8,36.0,32.0,25.3,18.0,74,49,32,30.28,29.96,17,-6,28,0.00
2013-4-21,55.0,43.0,30.0,32.0,27.9,23.0,86,58,34,30.42,30.28,13,2,20,0.00
2013-4-22,57.0,47.7,39.0,36.0,31.5,28.0,75,54,35,30.40,30.23,12,-26,20,0.00
2013-4-23,66.0,49.2,30.0,43.0,34.6,25.0,86,60,36,30.29,30.13,13,2,17,0.00
2013-4-24,68.0,54.5,37.0,54.0,45.0,34.0,93,71,48,30.17,30.05,14,-11,20,0.00
2013-4-25,63.0,51.1,37.0,45.0,26.9,12.0,80,45,13,30.33,30.14,13,-11,20,0.00
2013-4-26,63.0,48.4,30.0,39.0,29.9,25.0,86,52,29,30.41,30.33,9,1,0,0.00
2013-4-27,57.0,50.3,46.0,46.0,44.5,39.0,93,80,61,30.40,30.26,9,1,0,0.00
2013-4-28,52.0,48.7,46.0,48.0,44.0,-99.9,93,87,70,30.26,30.07,7,-13,0,0.00
2013-4-29,66.0,56.0,48.0,55.0,50.3,45.0,93,82,48,30.10,30.01,10,1,0,0.00
2013-4-30,68.0,58.7,52.0,55.0,52.5,48.0,93,80,49,30.22,30.06,10,2,15,0.00
2013-5-1,61.0,56.1,54.0,52.0,48.1,46.0,82,74,62,30.33,30.22,9,2,0,0.00
2013-5-2,57.0,53.8,50.0,52.0,48.8,46.0,87,83,76,30.33,30.26,8,2,0,0.00
2013-5-3,55.0,53.2,50.0,48.0,45.2,41.0,87,74,62,30.28,30.14,15,-38,24,0.00
2013-5-4,54.0,47.9,43.0,45.0,40.2,34.0,87,75,57,30.14,30.03,15,8,27,0.00
2013-5-5,54.0,47.0,43.0,48.0,42.0,37.0,87,82,81,30.07,29.88,23,12,41,0.00
2013-5-6,61.0,54.2,45.0,48.0,44.7,39.0,87,72,44,29.96,29.86,20,6,32,0.00
2013-5-7,57.0,48.0,39.0,48.0,42.4,36.0,93,81,58,29.99,29.92,9,0,0,0.00
2013-5-8,63.0,53.6,46.0,52.0,47.4,43.0,93,80,59,30.09,29.97,13,-40,0,0.00
2013-5-9,73.0,58.6,43.0,55.0,46.4,39.0,93,68,38,30.17,30.07,9,-26,0,0.00
2013-5-10,73.0,59.1,46.0,55.0,48.5,-99.9,93,73,49,30.19,30.05,15,-26,24,0.00
2013-5-11,66.0,60.5,54.0,55.0,53.0,48.0,87,76,59,30.06,29.92,10,1,15,0.00
2013-5-12,57.0,52.6,46.0,46.0,34.5,-99.9,71,52,35,30.10,29.95,15,-23,28,0.00
2013-5-13,55.0,47.4,36.0,30.0,26.3,21.0,80,45,27,30.20,30.08,16,-24,25,0.00
2013-5-14,66.0,51.3,32.0,45.0,34.8,27.0,86,56,31,30.25,30.13,14,3,22,0.00
2013-5-15,81.0,68.0,46.0,54.0,47.8,41.0,81,51,28,30.18,30.08,15,-6,24,0.00
2013-5-16,75.0,60.0,54.0,50.0,26.8,-99.9,76,52,38,30.14,30.07,13,-12,24,0.00
2013-5-17,75.0,62.0,46.0,55.0,45.9,-99.9,87,65,46,30.19,30.12,10,-12,21,0.00
2013-5-18,66.0,61.2,57.0,57.0,55.4,52.0,87,82,63,30.20,30.14,8,1,0,0.00
2013-5-19,70.0,63.1,59.0,63.0,58.0,55.0,88,84,73,30.19,30.11,8,1,0,0.00
2013-5-20,79.0,65.8,57.0,64.0,58.5,54.0,93,78,47,30.21,30.12,10,-27,18,0.00
2013-5-21,81.0,69.3,61.0,64.0,58.7,55.0,93,71,44,30.16,30.06,13,-26,21,0.00
2013-5-22,75.0,62.5,55.0,64.0,56.7,54.0,93,82,56,30.12,30.02,8,-14,0,0.00
2013-5-23,73.0,64.3,57.0,61.0,54.6,50.0,93,72,46,30.07,29.96,9,-110,0,0.00
2013-5-24,61.0,56.1,45.0,50.0,39.7,30.0,76,55,35,30.25,29.99,18,-6,28,0.00
2013-5-25,70.0,54.2,39.0,39.0,33.6,28.0,80,49,22,30.32,30.25,15,-32,20,0.00
2013-5-26,70.0,58.6,48.0,48.0,41.8,36.0,76,55,34,30.31,30.23,12,-19,20,0.00
2013-5-27,72.0,59.8,45.0,55.0,48.9,39.0,87,68,49,30.32,30.22,10,2,21,0.00
2013-5-28,75.0,64.8,52.0,59.0,54.0,46.0,87,69,53,30.29,30.23,12,3,21,0.00
2013-5-29,77.0,65.7,52.0,61.0,54.6,48.0,87,69,43,30.31,30.25,10,2,16,0.00
2013-5-30,75.0,65.0,52.0,59.0,54.4,48.0,87,70,50,30.35,30.27,12,-67,16,0.00
2013-5-31,75.0,66.2,55.0,59.0,55.3,52.0,87,69,50,30.31,30.22,12,3,23,0.00
2013-6-1,75.0,67.1,57.0,61.0,56.7,54.0,87,70,53,30.24,30.13,14,4,28,0.00
2013-6-2,70.0,65.1,63.0,63.0,59.0,-99.9,88,83,72,30.16,30.02,8,0,0,0.00
2013-6-3,75.0,67.4,61.0,63.0,56.8,54.0,93,71,46,30.10,29.99,13,2,21,0.00
2013-6-4,72.0,64.8,59.0,59.0,55.6,54.0,82,73,56,30.20,30.08,10,-13,16,0.00
2013-6-5,72.0,65.7,59.0,61.0,58.0,54.0,88,76,64,30.20,30.10,9,2,0,0.00
2013-6-6,72.0,66.4,63.0,63.0,61.5,59.0,93,84,73,30.11,29.92,7,1,0,0.00
2013-6-7,73.0,65.8,63.0,63.0,59.6,57.0,93,81,60,29.96,29.82,9,1,0,0.00
2013-6-8,75.0,65.9,57.0,63.0,57.2,54.0,88,75,46,30.19,29.95,9,-112,0,0.00
2013-6-9,75.0,66.9,63.0,64.0,61.4,57.0,88,82,64,30.25,30.16,10,1,15,0.00
2013-6-10,73.0,67.2,61.0,63.0,59.0,50.0,88,76,43,30.17,30.02,12,4,23,0.00
2013-6-11,75.0,67.1,61.0,57.0,55.5,54.0,87,68,50,30.13,30.04,13,-32,18,0.00
2013-6-12,84.0,73.1,61.0,66.0,61.5,55.0,82,69,48,30.14,30.07,13,-12,23,0.00
2013-6-13,82.0,72.1,64.0,63.0,60.4,57.0,88,67,44,30.07,29.88,16,4,36,0.00
2013-6-14,72.0,63.9,54.0,57.0,49.9,48.0,87,62,43,30.16,29.93,14,-10,20,0.00
2013-6-15,79.0,62.6,46.0,59.0,51.4,43.0,87,68,43,30.23,30.16,12,1,17,0.00
2013-6-16,77.0,66.6,54.0,63.0,57.8,50.0,87,73,53,30.23,30.15,8,1,0,0.00
2013-6-17,77.0,68.0,63.0,64.0,61.7,59.0,88,79,60,30.17,30.07,5,0,0,0.00
2013-6-18,72.0,66.6,61.0,64.0,61.3,55.0,88,82,68,30.09,29.95,9,-291,0,0.00
2013-6-19,72.0,63.5,54.0,63.0,57.1,50.0,93,80,60,30.23,30.05,8,-131,0,0.00
2013-6-20,73.0,63.2,55.0,63.0,56.8,52.0,88,80,56,30.31,30.22,8,1,0,0.00
2013-6-22,79.0,73.5,64.0,61.0,56.7,50.0,77,56,39,30.33,30.23,8,1,0,0.00
2013-6-23,79.0,67.4,55.0,63.0,58.0,52.0,88,72,47,30.32,30.24,8,-25,0,0.00
2013-6-24,81.0,69.7,59.0,64.0,61.5,55.0,93,76,50,30.32,30.23,10,-98,0,0.00
2013-6-25,81.0,69.3,61.0,66.0,61.7,55.0,88,77,54,30.27,30.14,6,-38,0,0.00
2013-6-26,81.0,69.2,61.0,66.0,62.1,55.0,93,79,54,30.18,30.06,8,-19,0,0.00
2013-6-27,77.0,69.1,61.0,66.0,61.6,57.0,88,78,65,30.08,29.91,10,1,0,0.00
2013-6-28,81.0,71.8,64.0,64.0,62.4,61.0,88,72,50,29.95,29.81,13,-16,24,0.00
2013-6-29,79.0,68.5,61.0,63.0,57.0,54.0,88,69,41,29.87,29.79,8,-41,0,0.00
2013-6-30,77.0,64.6,55.0,63.0,57.5,52.0,88,77,50,29.96,29.85,8,-332,0,0.00
2013-7-1,73.0,67.6,63.0,63.0,61.6,59.0,88,80,64,30.08,29.94,8,1,0,0.00
2013-7-2,73.0,66.9,63.0,64.0,61.5,59.0,88,82,68,30.24,30.08,7,1,0,0.00
2013-7-3,70.0,66.0,61.0,64.0,61.5,57.0,88,85,82,30.30,30.21,13,-12,21,0.00
2013-7-4,72.0,65.5,61.0,66.0,60.8,55.0,93,85,77,30.32,30.27,12,-9,21,0.00
2013-7-5,75.0,68.6,64.0,64.0,62.9,61.0,88,81,64,30.34,30.28,9,2,0,0.00
2013-7-6,75.0,69.0,66.0,66.0,63.7,63.0,88,83,69,30.32,30.24,9,2,0,0.00
2013-7-7,75.0,70.1,66.0,66.0,64.6,63.0,93,83,69,30.28,30.20,9,2,0,0.00
2013-7-8,81.0,69.5,64.0,66.0,60.4,-99.9,93,77,44,30.30,30.23,7,-12,0,0.00
2013-7-9,81.0,71.6,63.0,66.0,63.6,59.0,93,77,57,30.29,30.20,8,-155,0,0.00
2013-7-10,81.0,69.0,64.0,68.0,61.8,-99.9,93,81,61,30.26,30.09,9,0,0,0.00
2013-7-11,75.0,69.6,64.0,68.0,64.0,63.0,93,82,64,30.10,30.02,7,-47,0,0.00
2013-7-12,79.0,68.0,61.0,64.0,60.9,55.0,93,78,54,30.15,30.03,9,1,0,0.00
2013-7-13,73.0,66.6,63.0,63.0,59.9,57.0,88,79,68,30.23,30.13,9,2,0,0.00
2013-7-14,75.0,69.1,66.0,64.0,63.2,63.0,88,80,64,30.39,30.21,14,3,21,0.00
2013-7-15,79.0,71.6,64.0,64.0,62.7,61.0,88,73,57,30.44,30.38,9,2,0,0.00
2013-7-16,84.0,70.4,59.0,68.0,61.5,55.0,93,74,50,30.44,30.37,8,-78,0,0.00
2013-7-17,82.0,67.8,61.0,70.0,62.3,57.0,88,83,65,30.40,30.33,8,-364,0,0.00
2013-7-18,82.0,71.9,63.0,70.0,64.7,59.0,94,79,57,30.34,30.22,6,-29,0,0.00
2013-7-19,81.0,72.3,66.0,70.0,65.4,63.0,93,80,54,30.26,30.15,0,-405,0,0.00
2013-7-20,81.0,70.1,66.0,70.0,63.0,-99.9,93,81,61,30.19,30.08,9,0,0,0.00
2013-7-21,81.0,69.7,64.0,68.0,64.7,61.0,93,84,61,30.15,30.07,6,-37,0,0.00
2013-7-22,77.0,69.8,63.0,70.0,64.6,61.0,93,84,64,30.13,29.98,9,-10,0,0.00
2013-7-23,81.0,71.2,66.0,66.0,62.3,59.0,93,73,54,30.03,29.96,13,2,21,0.00
2013-7-24,81.0,75.6,64.0,64.0,62.4,57.0,88,64,44,30.01,29.95,10,1,17,0.00
2013-7-25,77.0,68.1,61.0,63.0,59.9,55.0,88,75,53,30.16,30.00,12,2,16,0.00
2013-7-26,77.0,66.0,55.0,64.0,59.0,52.0,88,78,60,30.21,30.14,8,-7,0,0.00
2013-7-27,75.0,67.0,64.0,66.0,62.6,61.0,93,84,64,30.16,30.03,5,0,0,0.00
2013-7-28,77.0,68.1,61.0,64.0,59.8,55.0,93,75,53,30.15,30.04,8,1,0,0.00
2013-7-29,77.0,64.4,52.0,59.0,53.7,48.0,93,71,38,30.31,30.15,8,-236,0,0.00
2013-7-30,73.0,64.1,55.0,63.0,57.2,52.0,88,78,60,30.33,30.27,5,0,0,0.00
2013-7-31,70.0,65.4,63.0,64.0,61.3,57.0,93,86,77,30.29,30.11,5,-318,0,0.00
2013-8-1,79.0,69.7,64.0,66.0,62.7,59.0,93,78,54,30.11,30.04,8,0,0,0.00
2013-8-2,77.0,66.7,55.0,64.0,59.7,54.0,93,78,56,30.17,30.09,7,-261,0,0.00
2013-8-3,79.0,69.1,63.0,63.0,60.8,59.0,88,75,50,30.17,30.11,12,1,18,0.00
2013-8-4,79.0,69.5,61.0,63.0,58.7,54.0,88,70,44,30.18,30.09,12,-38,20,0.00
2013-8-5,75.0,66.9,57.0,64.0,58.7,54.0,93,75,60,30.19,30.11,8,-9,0,0.00
2013-8-6,75.0,69.5,64.0,66.0,63.2,61.0,93,80,60,30.17,30.09,7,1,0,0.00
2013-8-7,72.0,67.8,66.0,64.0,63.5,63.0,88,86,77,30.19,30.14,8,1,0,0.00
2013-8-8,77.0,70.3,64.0,68.0,64.9,61.0,93,83,69,30.18,30.15,6,-17,0,0.00
2013-8-9,82.0,72.3,66.0,70.0,65.5,64.0,94,80,58,30.21,30.14,9,1,0,0.00
2013-8-10,81.0,70.2,64.0,70.0,64.6,63.0,93,83,61,30.25,30.19,9,0,0,0.00
2013-8-11,81.0,70.8,63.0,70.0,64.6,61.0,94,81,61,30.26,30.19,7,0,0,0.00
2013-8-12,81.0,71.0,64.0,70.0,65.0,63.0,93,81,61,30.23,30.12,9,-19,0,0.00
2013-8-13,79.0,68.1,64.0,66.0,63.4,61.0,93,84,61,30.12,29.99,10,-34,16,0.00
2013-8-14,72.0,63.6,57.0,61.0,54.1,-99.9,93,75,53,30.18,30.03,6,-30,0,0.00
2013-8-15,64.0,53.2,54.0,54.0,34.5,-99.9,87,70,63,30.24,30.17,5,0,0,0.00
2013-8-16,70.0,58.3,52.0,57.0,47.2,-99.9,93,74,56,30.26,30.18,8,-287,0,0.00
2013-8-17,64.0,61.3,57.0,57.0,53.8,48.0,87,76,63,30.27,30.21,6,-110,0,0.00
2013-8-18,72.0,63.7,61.0,64.0,57.6,-99.9,88,82,73,30.30,30.22,5,-257,0,0.00
2013-8-19,72.0,62.0,63.0,63.0,47.6,-99.9,93,84,73,30.29,30.21,6,-191,0,0.00
2013-8-20,75.0,66.9,63.0,64.0,59.6,-99.9,93,82,64,30.30,30.22,7,-352,0,0.00
2013-8-21,73.0,68.2,64.0,64.0,63.0,61.0,93,83,73,30.34,30.24,5,-106,0,0.00
2013-8-27,79.0,62.7,54.0,64.0,56.4,50.0,93,80,57,30.27,30.18,13,3,20,0.00
2013-8-28,81.0,77.5,73.0,66.0,64.1,63.0,73,64,57,30.16,30.10,6,0,0,0.00
2013-8-29,84.0,75.6,66.0,66.0,63.5,59.0,88,67,42,30.15,30.06,13,-78,20,0.00
2013-8-30,77.0,70.6,66.0,66.0,64.3,63.0,88,81,69,30.18,30.09,8,-78,0,0.00
2013-8-31,81.0,71.2,64.0,70.0,64.2,61.0,94,79,57,30.11,30.03,8,-15,0,0.00
2013-9-1,81.0,68.1,63.0,70.0,61.6,-99.9,94,83,61,30.07,29.97,7,0,0,0.00
2013-9-2,81.0,69.7,61.0,66.0,61.9,57.0,93,77,57,30.06,29.98,12,1,18,0.00
2013-9-3,77.0,68.2,61.0,64.0,60.8,57.0,93,77,57,30.13,29.99,12,-40,17,0.00
2013-9-4,79.0,65.7,54.0,64.0,57.0,50.0,93,75,47,30.24,30.12,6,-31,0,0.00
2013-9-5,81.0,64.1,52.0,59.0,53.8,48.0,93,72,34,30.27,30.21,6,0,0,0.00
2013-9-6,75.0,62.9,50.0,61.0,55.0,46.0,87,76,56,30.29,30.21,5,0,0,0.00
2013-9-7,77.0,64.4,55.0,61.0,56.7,52.0,93,77,50,30.24,30.13,7,1,0,0.00
2013-9-8,79.0,65.7,57.0,63.0,56.7,-99.9,93,76,57,30.16,30.09,7,-95,0,0.00
2013-9-9,79.0,67.4,57.0,64.0,60.1,54.0,93,78,61,30.27,30.15,7,1,0,0.00
2013-9-10,81.0,68.3,57.0,64.0,60.4,54.0,93,77,54,30.35,30.28,10,0,15,0.00
2013-9-11,79.0,68.6,59.0,66.0,62.1,55.0,93,80,61,30.35,30.23,8,0,0,0.00
2013-9-12,79.0,69.4,61.0,68.0,63.0,59.0,94,81,61,30.24,30.02,8,-191,0,0.00
2013-9-13,72.0,65.1,54.0,61.0,53.4,46.0,88,67,46,30.04,29.96,12,-31,17,0.00
2013-9-14,70.0,56.5,46.0,54.0,47.5,41.0,87,72,52,30.20,30.03,5,0,0,0.00
2013-9-15,70.0,55.8,48.0,57.0,48.0,-99.9,93,80,60,30.28,30.20,6,1,0,0.00
2013-9-16,73.0,63.3,54.0,63.0,54.3,52.0,93,74,49,30.27,30.21,9,-17,0,0.00
2013-9-17,63.0,59.7,57.0,57.0,50.4,46.0,82,72,59,30.38,30.27,6,0,0,0.00
2013-9-18,57.0,55.7,54.0,52.0,50.9,48.0,87,82,76,30.34,30.31,0,0,0,0.00
2013-9-19,75.0,65.2,57.0,61.0,57.9,55.0,93,78,60,30.27,30.20,5,0,0,0.00
2013-9-20,75.0,66.7,57.0,64.0,59.4,55.0,93,78,60,30.20,30.06,5,-69,0,0.00
2013-9-21,64.0,61.7,55.0,63.0,58.6,54.0,93,89,82,30.06,29.85,7,-257,0,0.00
2013-9-22,70.0,55.9,46.0,54.0,46.6,-99.9,93,75,49,30.03,29.87,5,-25,0,0.00
2013-9-23,66.0,55.4,43.0,55.0,49.5,39.0,93,80,63,30.14,30.03,6,0,0,0.00
2013-9-24,72.0,61.8,54.0,57.0,54.4,50.0,93,78,56,30.16,30.04,7,-12,0,0.00
2013-9-25,61.0,57.7,55.0,57.0,54.4,54.0,93,87,82,30.05,29.96,5,0,0,0.00
2013-9-26,68.0,58.0,52.0,55.0,52.9,46.0,93,83,56,30.15,29.99,6,0,0,0.00
2013-9-27,70.0,55.8,45.0,55.0,50.2,43.0,93,82,60,30.26,30.15,7,0,0,0.00
2013-9-28,64.0,57.5,54.0,54.0,51.3,48.0,93,80,67,30.31,30.23,6,0,0,0.00
2013-9-29,66.0,57.1,50.0,54.0,47.9,-99.9,87,74,63,30.24,30.11,5,1,0,0.00
2013-9-30,66.0,58.8,52.0,55.0,52.6,48.0,93,79,63,30.17,30.10,5,0,0,0.00
2013-10-1,61.0,56.9,54.0,54.0,52.2,50.0,87,84,77,30.22,30.16,0,0,0,0.00
2013-10-2,73.0,58.3,46.0,57.0,50.7,43.0,93,77,53,30.26,30.19,0,0,0,0.00
2013-10-3,73.0,60.5,50.0,59.0,52.9,46.0,93,77,53,30.24,30.18,6,0,0,0.00
2013-10-4,77.0,61.7,50.0,61.0,54.0,46.0,93,77,50,30.26,30.20,6,1,0,0.00
2013-10-5,79.0,63.6,52.0,63.0,55.8,48.0,93,77,53,30.26,30.17,9,1,0,0.00
2013-10-6,73.0,63.5,54.0,61.0,56.1,50.0,93,77,56,30.19,30.02,9,-63,0,0.00
2013-10-7,66.0,59.4,46.0,61.0,52.2,43.0,88,78,59,30.12,29.92,10,-76,18,0.00
2013-10-8,63.0,49.5,39.0,48.0,41.4,36.0,93,76,48,30.28,30.11,9,1,0,0.00
2013-10-9,66.0,48.7,36.0,48.0,40.3,34.0,93,74,45,30.28,30.19,0,0,0,0.00
2013-10-10,68.0,50.8,37.0,52.0,42.4,34.0,93,75,48,30.21,30.12,12,2,0,0.00
2013-10-11,72.0,57.6,45.0,54.0,46.4,39.0,93,69,40,30.12,30.05,13,-15,22,0.00
2013-10-12,68.0,56.2,46.0,55.0,50.4,45.0,93,81,63,30.19,30.08,5,-15,0,0.00
2013-10-13,66.0,58.5,54.0,59.0,52.4,-99.9,93,83,72,30.30,30.19,5,0,0,0.00
2013-10-14,66.0,58.1,54.0,55.0,53.1,48.0,93,83,67,30.31,30.24,7,1,0,0.00
2013-10-15,64.0,56.8,52.0,54.0,51.7,46.0,93,82,67,30.27,30.14,8,1,0,0.00
2013-10-16,66.0,55.7,45.0,54.0,49.4,43.0,93,79,63,30.17,30.05,5,0,0,0.00
2013-10-17,63.0,58.9,55.0,57.0,53.9,48.0,93,83,71,30.07,29.94,5,0,0,0.00
2013-10-19,61.0,55.6,52.0,52.0,47.8,39.0,87,75,47,30.04,29.93,10,1,15,0.00
2013-10-20,61.0,47.5,34.0,39.0,32.2,-99.9,86,60,30,30.14,30.00,9,0,0,0.00
2013-10-21,61.0,48.3,32.0,48.0,40.7,28.0,93,76,54,30.17,30.06,6,0,0,0.00
2013-10-22,64.0,53.0,46.0,50.0,43.0,39.0,93,71,39,30.07,29.90,10,0,17,0.00
2013-10-23,52.0,44.5,37.0,43.0,32.9,25.0,87,63,49,30.03,29.81,18,7,37,0.00
2013-10-24,46.0,39.8,34.0,32.0,27.2,23.0,69,61,49,30.15,30.03,10,-25,15,0.00
2013-10-25,41.0,34.5,25.0,28.0,22.3,18.0,79,61,44,30.32,30.15,16,4,24,0.00
2013-10-26,52.0,37.3,19.0,37.0,24.1,16.0,85,62,29,30.31,30.08,7,0,0,0.00
2013-10-27,63.0,51.7,45.0,43.0,36.6,-99.9,71,58,39,30.16,30.08,12,2,17,0.00
2013-10-28,59.0,52.6,48.0,46.0,43.0,-99.9,87,74,62,30.30,30.15,5,-32,0,0.00
2013-10-29,64.0,50.8,39.0,48.0,42.6,36.0,87,75,48,30.36,30.29,7,1,0,0.00
2013-10-30,70.0,58.2,50.0,52.0,49.0,46.0,87,73,49,30.32,30.23,8,1,0,0.00
2013-10-31,61.0,55.2,46.0,55.0,49.7,45.0,93,82,67,30.26,29.93,13,2,21,0.00
2013-11-1,70.0,60.6,50.0,57.0,52.1,37.0,87,75,30,29.93,29.76,13,3,21,0.00
2013-11-2,55.0,50.2,45.0,41.0,35.0,28.0,76,56,40,30.03,29.84,16,-31,24,0.00
2013-11-3,54.0,43.1,30.0,30.0,26.5,-99.9,86,55,37,30.33,30.03,13,-11,0,0.00
2013-11-4,52.0,38.5,27.0,32.0,25.5,21.0,86,62,36,30.47,30.35,6,-12,0,0.00
2013-11-5,55.0,41.1,28.0,37.0,30.1,18.0,86,67,22,30.49,30.42,7,0,0,0.00
2013-11-6,61.0,50.7,41.0,48.0,43.7,36.0,93,78,59,30.42,30.18,7,-349,0,0.00
2013-11-7,55.0,46.0,39.0,52.0,37.6,25.0,93,73,52,30.18,30.05,14,2,24,0.00
2013-11-8,48.0,37.4,27.0,25.0,18.6,10.0,79,49,24,30.28,30.15,12,-73,17,0.00
2013-11-9,52.0,36.6,23.0,28.0,20.8,-99.9,80,58,29,30.32,30.20,0,0,0,0.00
2013-11-10,59.0,47.9,30.0,34.0,25.5,18.0,80,43,26,30.26,30.19,13,3,29,0.00
2013-11-12,52.0,36.2,25.0,34.0,21.2,10.0,80,55,34,30.37,30.09,17,-11,28,0.00
2013-11-13,45.0,28.4,18.0,14.0,10.1,7.0,72,48,22,30.43,30.35,16,4,23,0.00
2013-11-14,57.0,33.2,16.0,19.0,13.1,9.0,78,51,16,30.39,30.29,8,2,0,0.00
2013-11-15,52.0,36.8,23.0,43.0,30.2,16.0,93,77,45,30.30,30.20,5,0,0,0.00
2013-11-16,54.0,48.0,45.0,48.0,43.1,-99.9,93,87,81,30.27,30.20,7,-32,0,0.00
2013-11-17,55.0,53.5,50.0,54.0,50.9,46.0,93,91,87,30.23,29.96,5,0,0,0.00
2013-11-18,57.0,52.9,43.0,55.0,38.1,25.0,93,59,32,30.06,29.92,15,6,31,0.00
2013-11-19,50.0,40.9,34.0,27.0,20.4,12.0,69,45,25,30.23,30.04,13,2,24,0.00
2013-11-20,45.0,35.8,28.0,25.0,21.5,18.0,86,57,33,30.40,30.23,6,-42,0,0.00
2013-11-21,54.0,43.7,30.0,46.0,38.0,25.0,93,80,66,30.44,30.36,0,-94,0,0.00
2013-11-22,61.0,54.1,48.0,54.0,50.4,45.0,93,86,72,30.38,30.17,0,0,0,0.00
2013-11-23,55.0,44.4,30.0,50.0,32.7,-99.9,87,66,40,30.21,30.13,15,4,23,0.00
2013-11-24,34.0,24.1,16.0,14.0,2.3,-6.0,62,40,17,30.38,30.17,13,-93,23,0.00
2013-11-25,30.0,23.6,14.0,18.0,5.9,1.0,72,48,28,30.39,30.26,0,-59,0,0.00
2013-11-26,41.0,35.8,27.0,39.0,32.8,19.0,93,89,68,30.24,29.68,0,0,0,0.00
2013-11-27,39.0,26.4,21.0,37.0,17.3,9.0,93,68,53,30.07,29.66,17,7,32,0.00
2013-11-28,45.0,29.0,16.0,19.0,14.3,9.0,79,58,28,30.37,30.17,5,0,0,0.00
2013-11-29,52.0,32.1,19.0,25.0,18.9,14.0,85,62,25,30.51,30.36,5,-13,0,0.00
2013-11-30,43.0,28.4,19.0,25.0,17.6,-99.9,85,68,38,30.51,30.30,7,0,0,0.00
2013-12-1,54.0,32.3,19.0,34.0,22.6,16.0,86,70,34,30.30,30.03,7,-168,0,0.00
2013-12-2,52.0,37.4,25.0,36.0,28.8,21.0,86,72,49,30.03,29.84,0,0,0,0.00
2013-12-3,55.0,44.4,34.0,45.0,38.7,28.0,93,80,62,29.98,29.88,7,0,0,0.00
2013-12-4,54.0,50.4,46.0,50.0,46.7,45.0,93,87,81,30.11,29.98,5,0,0,0.00
2013-12-5,61.0,56.0,52.0,57.0,52.4,48.0,93,88,82,30.15,30.06,0,0,0,0.00
2013-12-6,66.0,62.6,54.0,61.0,57.3,48.0,93,83,72,30.11,30.01,14,5,35,0.00
2013-12-7,54.0,45.3,37.0,50.0,36.9,-99.9,87,75,70,30.35,30.06,7,0,0,0.00
2013-12-8,37.0,34.0,30.0,32.0,29.6,28.0,92,84,80,30.34,30.19,0,-13,0,0.00
2013-12-9,55.0,42.4,32.0,50.0,38.2,28.0,93,85,71,30.17,30.05,6,0,0,0.00
2013-12-10,43.0,37.1,28.0,39.0,28.4,10.0,86,71,46,30.23,29.92,18,4,29,0.00
2013-12-11,46.0,29.5,18.0,19.0,12.5,3.0,85,55,16,30.34,30.22,13,2,23,0.00
2013-12-12,34.0,29.1,21.0,14.0,9.6,1.0,58,44,24,30.31,30.23,13,2,20,0.00
2013-12-13,46.0,29.4,18.0,21.0,14.8,9.0,78,57,26,30.28,30.19,7,-93,0,0.00
2013-12-14,39.0,35.4,34.0,36.0,27.5,-99.9,93,76,59,30.21,29.79,0,0,0,0.00
2013-12-15,43.0,33.8,27.0,41.0,27.5,21.0,93,77,68,30.05,29.77,18,5,32,0.00
2013-12-16,48.0,35.2,27.0,28.0,24.0,21.0,80,65,34,30.13,30.03,8,1,0,0.00
2013-12-17,54.0,40.6,27.0,34.0,26.8,16.0,86,60,34,30.11,29.95,21,-26,36,0.00
2013-12-22,61.0,56.8,54.0,57.0,54.2,52.0,93,90,82,30.13,30.01,17,2,30,0.00
2013-12-23,55.0,47.5,32.0,54.0,42.1,25.0,93,81,69,30.19,30.04,10,2,18,0.00
2013-12-24,30.0,26.1,18.0,25.0,16.1,10.0,86,66,49,30.31,30.17,12,2,23,0.00
2013-12-25,34.0,21.7,12.0,14.0,9.7,3.0,85,62,31,30.38,30.27,5,-396,0,0.00
2013-12-26,43.0,26.6,16.0,21.0,14.5,10.0,85,63,33,30.30,30.22,14,2,23,0.00
2013-12-27,48.0,30.7,18.0,23.0,17.5,12.0,85,62,26,30.39,30.28,6,0,0,0.00
2013-12-28,46.0,31.7,18.0,36.0,20.6,-99.9,93,68,36,30.36,30.11,0,-183,0,0.00
2013-12-29,48.0,40.6,37.0,43.0,35.2,28.0,93,80,64,30.13,29.82,17,3,27,0.00
2013-12-30,43.0,39.5,36.0,34.0,30.7,28.0,80,71,64,30.11,29.95,15,2,27,0.00
2013-12-31,37.0,31.2,23.0,30.0,16.7,10.0,80,55,37,30.30,30.09,14,-39,28,0.00
2014-1-1,41.0,29.1,21.0,25.0,19.2,16.0,79,67,48,30.30,30.11,0,0,0,0.00
2014-1-2,43.0,31.5,18.0,36.0,26.3,9.0,86,81,67,30.09,29.68,17,2,30,0.00